Weather History for KFHB - July, 2013

Change the Weather History Date:

Friday, July 5, 2013

  Actual Average (KJAX) Record (KJAX)
Temperature  
Mean Temperature 80 °F 82 °F  
Max Temperature 86 °F 92 °F 100 °F (1877)
Min Temperature 75 °F 72 °F 66 °F (2000)
Degree Days  
Heating Degree Days 0 0  
Month to date heating degree days 0  
Since 1 June heating degree days 0  
Since 1 July heating degree days 0  
Cooling Degree Days 16 17  
Month to date cooling degree days 85  
Year to date cooling degree days 1018  
Since 1 June cooling degree days 534  
Growing Degree Days 30 (Base 50)    
Moisture  
Dew Point 78 °F    
Average Humidity 94    
Maximum Humidity 100    
Minimum Humidity 79    
Precipitation  
Precipitation 0.00 in 0.21 in 1.85 in (1897)
Month to date precipitation 1.06  
Year to date precipitation 23.07  
Snow  
Snow 0.00 in 0.00 in 0.00 in (2002)
Month to date snowfall 0.0  
Since 1 June snowfall 0.0  
Since 1 July snowfall 0.0  
Snow Depth -    
Sea Level Pressure  
Sea Level Pressure 30.15 in    
Wind  
Wind Speed 6 mph (SE)    
Max Wind Speed 15 mph    
Max Gust Speed 21 mph    
Visibility 10 miles    
Events      
T = Trace of Precipitation, MM = Missing Value Source: NWS Daily Summary

Daily Weather History Graph

Daily Weather History Graph

Search for Another Location

Airport or City:

Trip Planner

Search our weather history database for the weather conditions in past years. The results will help you decide how hot, cold, wet, or windy it might be!

Date:

Astronomy

Jul. 05, 2013 Rise Set
Actual Time 6:28 AM EDT 8:32 PM EDT
Civil Twilight 6:01 AM EDT 8:59 PM EDT
Nautical Twilight 5:27 AM EDT 9:32 PM EDT
Astronomical Twilight 4:52 AM EDT 10:08 PM EDT
Moon 4:23 AM EDT (7/5) 6:29 PM EDT (7/5)
Length of Visible Light 14h 58m
Length of Day
14h 03m
Waning Crescent, 6% of the Moon is Illuminated
Jul 5
Waning Crescent
Jul 8
New
Jul 15
First Quarter
Jul 22
Full
Jul 29
Last Quarter

Hourly Weather History & Observations

Time (EDT) Temp. Heat Index Dew Point Humidity Pressure Visibility Wind Dir Wind Speed Gust Speed Precip Events Conditions
12:15 AM 75.2 °F - 75.2 °F 100% 30.17 in 7.0 mi Calm Calm - N/A   Clear
12:35 AM 75.2 °F - 75.2 °F 100% 30.17 in 7.0 mi Calm Calm - N/A   Clear
12:55 AM 75.2 °F - 75.2 °F 100% 30.16 in 7.0 mi Calm Calm - N/A   Clear
1:15 AM 75.2 °F - 75.2 °F 100% 30.16 in 10.0 mi Calm Calm - N/A   Clear
1:35 AM 75.2 °F - 75.2 °F 100% 30.16 in 10.0 mi ESE 3.5 mph - N/A   Clear
1:55 AM 77.0 °F - 77.0 °F 100% 30.16 in 7.0 mi ESE 4.6 mph - N/A   Clear
2:15 AM 77.0 °F - 77.0 °F 100% 30.16 in 7.0 mi SE 6.9 mph - N/A   Clear
2:35 AM 77.0 °F - 77.0 °F 100% 30.15 in 10.0 mi SE 4.6 mph - N/A   Clear
2:55 AM 77.0 °F - 77.0 °F 100% 30.14 in 7.0 mi SE 5.8 mph - N/A   Clear
3:15 AM 77.0 °F - 77.0 °F 100% 30.13 in 7.0 mi SE 5.8 mph - N/A   Clear
3:35 AM 77.0 °F - 77.0 °F 100% 30.13 in 7.0 mi ESE 5.8 mph - N/A   Clear
3:55 AM 77.0 °F - 77.0 °F 100% 30.13 in 7.0 mi SE 4.6 mph - N/A   Clear
4:15 AM 77.0 °F - 77.0 °F 100% 30.13 in 10.0 mi SE 4.6 mph - N/A   Clear
4:35 AM 77.0 °F - 77.0 °F 100% 30.14 in 10.0 mi Calm Calm - N/A   Clear
4:55 AM 77.0 °F - 77.0 °F 100% 30.14 in 10.0 mi Calm Calm - N/A   Clear
5:15 AM 77.0 °F - 77.0 °F 100% 30.14 in 10.0 mi Calm Calm - N/A   Clear
5:35 AM 75.2 °F - 75.2 °F 100% 30.15 in 7.0 mi Calm Calm - N/A   Clear
5:55 AM 75.2 °F - 75.2 °F 100% 30.15 in 7.0 mi East 3.5 mph - N/A   Clear
6:15 AM 75.2 °F - 75.2 °F 100% 30.15 in 10.0 mi East 3.5 mph - N/A   Scattered Clouds
6:35 AM 75.2 °F - 75.2 °F 100% 30.15 in 10.0 mi East 3.5 mph - N/A   Scattered Clouds
6:55 AM 77.0 °F - 77.0 °F 100% 30.15 in 10.0 mi East 5.8 mph - N/A   Clear
7:15 AM 77.0 °F - 77.0 °F 100% 30.16 in 10.0 mi East 3.5 mph - N/A   Clear
7:35 AM 77.0 °F - 77.0 °F 100% 30.16 in 10.0 mi East 5.8 mph - N/A   Clear
7:55 AM 77.0 °F - 77.0 °F 100% 30.16 in 10.0 mi East 5.8 mph - N/A   Clear
8:15 AM 78.8 °F - 78.8 °F 100% 30.17 in 10.0 mi ESE 4.6 mph - N/A   Clear
8:35 AM 80.6 °F 89.3 °F 80.6 °F 100% 30.17 in 10.0 mi ESE 6.9 mph - N/A   Clear
8:55 AM 80.6 °F 89.3 °F 80.6 °F 100% 30.16 in 10.0 mi ESE 10.4 mph - N/A   Clear
9:15 AM 80.6 °F 88.1 °F 78.8 °F 94% 30.17 in 10.0 mi ESE 10.4 mph - N/A   Clear
9:35 AM 82.4 °F 92.4 °F 78.8 °F 89% 30.18 in 10.0 mi SE 8.1 mph - N/A   Clear
9:55 AM 82.4 °F 90.9 °F 77.0 °F 84% 30.18 in 10.0 mi SE 10.4 mph - N/A   Clear
10:15 AM 82.4 °F 92.4 °F 78.8 °F 89% 30.18 in 10.0 mi SE 9.2 mph - N/A   Clear
10:35 AM 82.4 °F 92.4 °F 78.8 °F 89% 30.18 in 10.0 mi SE 10.4 mph - N/A   Clear
10:55 AM 82.4 °F 92.4 °F 78.8 °F 89% 30.19 in 10.0 mi SE 10.4 mph - N/A   Clear
11:15 AM 84.2 °F 96.1 °F 78.8 °F 84% 30.19 in 10.0 mi ESE 10.4 mph - N/A   Clear
11:35 AM 84.2 °F 96.1 °F 78.8 °F 84% 30.19 in 10.0 mi SE 9.2 mph - N/A   Clear
11:55 AM 84.2 °F 98.3 °F 80.6 °F 89% 30.19 in 10.0 mi ESE 8.1 mph - N/A   Clear
12:15 PM 84.2 °F 98.3 °F 80.6 °F 89% 30.18 in 10.0 mi ESE 10.4 mph 16.1 mph N/A   Clear
12:35 PM 84.2 °F 98.3 °F 80.6 °F 89% 30.18 in 10.0 mi SE 12.7 mph - N/A   Clear
12:55 PM 84.2 °F 98.3 °F 80.6 °F 89% 30.18 in 10.0 mi SE 13.8 mph 17.3 mph N/A   Clear
1:15 PM 84.2 °F 98.3 °F 80.6 °F 89% 30.17 in 10.0 mi ESE 12.7 mph 18.4 mph N/A   Clear
1:35 PM 84.2 °F 98.3 °F 80.6 °F 89% 30.17 in 10.0 mi SE 10.4 mph 17.3 mph N/A   Clear
1:55 PM 84.2 °F 98.3 °F 80.6 °F 89% 30.17 in 10.0 mi SE 10.4 mph 17.3 mph N/A   Clear
2:15 PM 84.2 °F 98.3 °F 80.6 °F 89% 30.17 in 10.0 mi SE 12.7 mph - N/A   Clear
2:35 PM 84.2 °F 98.3 °F 80.6 °F 89% 30.17 in 10.0 mi SE 15.0 mph 19.6 mph N/A   Clear
2:55 PM 84.2 °F 98.3 °F 80.6 °F 89% 30.16 in 10.0 mi ESE 12.7 mph 19.6 mph N/A   Clear
3:15 PM 84.2 °F 98.3 °F 80.6 °F 89% 30.15 in 10.0 mi ESE 15.0 mph 20.7 mph N/A   Clear
3:35 PM 86.0 °F 101.9 °F 80.6 °F 84% 30.14 in 10.0 mi ESE 12.7 mph 18.4 mph N/A   Clear
3:55 PM 86.0 °F 101.9 °F 80.6 °F 84% 30.14 in 10.0 mi SE 13.8 mph 18.4 mph N/A   Clear
4:15 PM 86.0 °F 101.9 °F 80.6 °F 84% 30.14 in 10.0 mi ESE 11.5 mph 20.7 mph N/A   Scattered Clouds
4:35 PM 86.0 °F 101.9 °F 80.6 °F 84% 30.13 in 10.0 mi SE 15.0 mph - N/A   Scattered Clouds
4:55 PM 86.0 °F 101.9 °F 80.6 °F 84% 30.13 in 10.0 mi SE 13.8 mph 18.4 mph N/A   Scattered Clouds
5:15 PM 86.0 °F 99.3 °F 78.8 °F 79% 30.13 in 10.0 mi SE 11.5 mph - N/A   Clear
5:35 PM 86.0 °F 99.3 °F 78.8 °F 79% 30.13 in 10.0 mi SE 10.4 mph - N/A   Clear
5:55 PM 82.4 °F 92.4 °F 78.8 °F 89% 30.13 in 10.0 mi SE 10.4 mph - N/A   Scattered Clouds
6:15 PM 82.4 °F 92.4 °F 78.8 °F 89% 30.13 in 10.0 mi SE 12.7 mph - N/A   Clear
6:35 PM 82.4 °F 92.4 °F 78.8 °F 89% 30.13 in 10.0 mi SE 10.4 mph - N/A   Clear
6:55 PM 82.4 °F 92.4 °F 78.8 °F 89% 30.13 in 10.0 mi SE 9.2 mph - N/A   Clear
7:15 PM 80.6 °F 88.1 °F 78.8 °F 94% 30.13 in 10.0 mi SE 6.9 mph - N/A   Clear
7:35 PM 80.6 °F 88.1 °F 78.8 °F 94% 30.13 in 10.0 mi SE 6.9 mph - N/A   Clear
7:55 PM 80.6 °F 88.1 °F 78.8 °F 94% 30.13 in 10.0 mi SE 8.1 mph - N/A   Clear
8:15 PM 80.6 °F 88.1 °F 78.8 °F 94% 30.13 in 10.0 mi SE 8.1 mph - N/A   Clear
8:35 PM 80.6 °F 88.1 °F 78.8 °F 94% 30.13 in 10.0 mi SE 8.1 mph - N/A   Clear
8:55 PM 78.8 °F - 78.8 °F 100% 30.14 in 10.0 mi SE 8.1 mph - N/A   Clear
9:15 PM 78.8 °F - 78.8 °F 100% 30.14 in 10.0 mi SE 5.8 mph - N/A   Clear
9:35 PM 78.8 °F - 78.8 °F 100% 30.15 in 10.0 mi SE 8.1 mph - N/A   Clear
9:55 PM 78.8 °F - 78.8 °F 100% 30.16 in 10.0 mi SE 5.8 mph - N/A   Clear
10:15 PM 78.8 °F - 78.8 °F 100% 30.16 in 10.0 mi SE 5.8 mph - N/A   Clear
10:35 PM 78.8 °F - 78.8 °F 100% 30.16 in 10.0 mi SE 6.9 mph - N/A   Clear
10:55 PM 78.8 °F - 78.8 °F 100% 30.16 in 10.0 mi SE 6.9 mph - N/A   Clear
11:15 PM 78.8 °F - 78.8 °F 100% 30.16 in 10.0 mi SE 6.9 mph - N/A   Clear
11:35 PM 78.8 °F - 78.8 °F 100% 30.16 in 10.0 mi SE 6.9 mph - N/A   Clear
11:55 PM 78.8 °F - 78.8 °F 100% 30.16 in 10.0 mi SE 8.1 mph - N/A   Clear